Starlink 31297

operational
NORAD ID: 59158 Int'l Des: 2024-044 Owner: SPXS Country: US Constellation: starlink
LEOCIRCULAR

关于 Starlink 31297

正在加载描述...

实时位置

正在加载3D地球...

即将过境

高度历史

Altitude vs Time

uPlot chart will show altitude changes over time

两行轨道根数

1 59158U 24044G 25258.05931549 -.00000995 00000-0 -26681-4 0 9992
2 59158 43.0035 19.0259 0000413 269.2874 90.7931 15.27566963 86730
Epoch: Sep 15, 2025 • Age: 12 hours

当前状态

高度 483.3 km
速度 7.63 km/s
星下点 25.99°N, 25.06°W
发射日期 Mar 4, 2024
运行时间 1.5 years
类型 internet

技术详情

分类 Payload
质量 730.00 kg
干质量 700.00 kg
总质量 730.00 kg
长度 0.30 m
直径 4.10 m
跨度 29.00 m
形状 Box + pan
制造商 SPXS
平台类型 Starlink V2M
阶段状态 In Orbit
所有者/国家 SPXS/US

大型星座

Loading constellations...